Home > Weather > Canterbury > Past weeks

Flag for United Kingdom Past Weather in Canterbury, England, United Kingdom — Yesterday and Last 2 Weeks

Now
64 °F

Mild.


Feels Like: 64 °F
Forecast: 58 / 71 °F
Wind: 8 mph from Southwest

Location: Manston

Current Time: Jul 30, 2016 at 5:55:02 PM

Latest Report: Jul 30, 2016 at 5:00 PM


Visibility: 16 mi

Pressure: 29.93 "Hg

Humidity: 90%

Dew Point: 61 °F

Location of CanterburyLocation

Past Weather in Canterbury — Graph

°F

Canterbury Temperature Yesterday

Maximum temperature yesterday: 74 °F (at 4:00 PM)
Minimum temperature yesterday: 62 °F (at 6:00 AM)
Average temperature yesterday: 67 °F

High & Low Weather Summary for the Past Weeks

 TemperatureHumidityPressure
High85 °F (Jul 19, 2:00 PM)100% (Jul 23, 3:00 AM)30.29 "Hg (Jul 23, 3:00 AM)
Low57 °F (Jul 23, 5:00 AM)43% (Jul 19, 2:00 PM)29.78 "Hg (Jul 20, 9:00 AM)
Average67 °F77%30.07 "Hg
* Reported Jul 15 4:00 PM — Jul 30 4:00 PM, Canterbury, Weather by CustomWeather, © 2016

Note: Actual official high and low records may vary slightly from our data, if they occured in-between our weather recording intervals... More about our weather records

Advertising

Canterbury Weather History for the Previous 24 Hours

Scroll right to see more
 ConditionsComfort  
Time TempWeatherWind HumidityBarometerVisibility
4:00 PM
Sat, Jul 30
64 °FMild.6 mph86%29.94 "Hg17 mi
3:00 PM65 °FMild.6 mph79%29.94 "Hg28 mi
2:00 PM66 °FMild.2 mph71%29.93 "Hg22 mi
1:00 PM65 °FMild.6 mph78%29.94 "Hg19 mi
12:00 PM64 °FMild.8 mph84%29.93 "Hg13 mi
11:00 AM64 °FMild.9 mph86%29.93 "Hg17 mi
10:00 AM64 °FMild.8 mph84%29.92 "Hg19 mi
9:00 AM65 °FMild.7 mph83%29.91 "Hg25 mi
8:00 AM62 °FCool.8 mph91%29.91 "Hg11 mi
7:00 AM58 °FCool.7 mph95%29.90 "Hg13 mi
6:00 AM57 °FCool.8 mph96%29.90 "Hg11 mi
5:00 AM57 °FCool.8 mph97%29.89 "Hg9 mi
4:00 AM58 °FCool.9 mph96%29.89 "Hg11 mi
3:00 AM58 °FCool.10 mph95%29.89 "Hg15 mi
2:00 AM59 °FCool.10 mph94%29.88 "Hg16 mi
1:00 AM60 °FCool.12 mph92%29.88 "Hg15 mi
12:00 AM61 °FCool.9 mph90%29.88 "Hg16 mi
11:00 PM
Fri, Jul 29
62 °FMild.10 mph86%29.88 "Hg19 mi
10:00 PM62 °FMild.10 mph84%29.88 "Hg18 mi
9:00 PM63 °FMild.10 mph79%29.86 "Hg22 mi
8:00 PM64 °FMild.15 mph74%29.87 "Hg31 mi
7:00 PM67 °FMild.13 mph70%29.86 "Hg28 mi
6:00 PM70 °FMild.16 mph62%29.85 "Hg25 mi
5:00 PM71 °FMild.18 mph61%29.85 "Hg19 mi
Weather by CustomWeather, © 2016

See weather overviewHow to use our weather pages